Weather History for KHEF - January, 2014

Change the Weather History Date:

Friday, January 3, 2014

  Actual Average Record
Temperature  
Mean Temperature 19 °F -  
Max Temperature 30 °F 43 °F 69 °F (2000)
Min Temperature 8 °F 24 °F 6 °F (2001)
Degree Days  
Heating Degree Days 46    
Moisture  
Dew Point 11 °F    
Average Humidity 70    
Maximum Humidity 100    
Minimum Humidity 43    
Precipitation  
Precipitation 0.00 in - - ()
Sea Level Pressure  
Sea Level Pressure 30.20 in    
Wind  
Wind Speed 15 mph (NNW)    
Max Wind Speed 30 mph    
Max Gust Speed 39 mph    
Visibility 10 miles    
Events      
Averages and records for this station are not official NWS values.
T = Trace of Precipitation, MM = Missing Value Source: NWS Daily Summary

Daily Weather History Graph

Daily Weather History Graph

Search for Another Location

Airport or City:

Trip Planner

Search our weather history database for the weather conditions in past years. The results will help you decide how hot, cold, wet, or windy it might be!

Date:

Astronomy

Jan. 03, 2014 Rise Set
Actual Time 7:28 AM EST 5:01 PM EST
Civil Twilight 6:58 AM EST 5:30 PM EST
Nautical Twilight 6:25 AM EST 6:03 PM EST
Astronomical Twilight 5:53 AM EST 6:36 PM EST
Moon 8:54 AM EST (1/3) 8:05 PM EST (1/3)
Length of Visible Light 10h 31m
Length of Day
9h 32m
Waxing Crescent, 8% of the Moon is Illuminated
Jan 3
Waxing Crescent
Jan 7
First Quarter
Jan 15
Full
Jan 24
Last Quarter
Jan 30
New

Hourly Weather History & Observations

Time (EST) Temp. Windchill Dew Point Humidity Pressure Visibility Wind Dir Wind Speed Gust Speed Precip Events Conditions
12:15 AM 30.2 °F 20.2 °F 28.4 °F 93% 29.65 in 4.0 mi North 12.7 mph - N/A   Overcast
12:35 AM 30.2 °F 20.2 °F 28.4 °F 93% 29.66 in 4.0 mi NNW 12.7 mph 16.1 mph N/A   Overcast
12:55 AM 30.2 °F 18.1 °F 30.2 °F 100% 29.67 in 5.0 mi NNW 18.4 mph 23.0 mph N/A   Overcast
1:15 AM 30.2 °F 18.5 °F 28.4 °F 93% 29.68 in 6.0 mi NNW 17.3 mph - N/A   Overcast
1:35 AM 28.4 °F 18.0 °F 28.4 °F 100% 29.71 in 8.0 mi NNW 12.7 mph 20.7 mph N/A   Overcast
1:55 AM 28.4 °F 17.5 °F 28.4 °F 100% 29.73 in 10.0 mi NNW 13.8 mph 18.4 mph N/A   Overcast
2:15 AM 28.4 °F 15.1 °F 28.4 °F 100% 29.74 in 10.0 mi NW 20.7 mph 31.1 mph N/A   Overcast
2:35 AM 26.6 °F 11.4 °F 24.8 °F 93% 29.76 in 10.0 mi NW 25.3 mph 34.5 mph N/A   Overcast
2:55 AM 24.8 °F 9.6 °F 23.0 °F 93% 29.78 in 10.0 mi NW 23.0 mph 36.8 mph N/A   Overcast
3:15 AM 24.8 °F 10.0 °F 21.2 °F 86% 29.81 in 10.0 mi NW 21.9 mph 34.5 mph N/A   Overcast
3:35 AM 23.0 °F 10.6 °F 19.4 °F 86% 29.83 in 10.0 mi NNW 13.8 mph 26.5 mph N/A   Overcast
3:55 AM 21.2 °F 5.2 °F 17.6 °F 86% 29.83 in 10.0 mi NW 21.9 mph 33.4 mph N/A   Overcast
4:15 AM 21.2 °F 4.9 °F 15.8 °F 80% 29.85 in 10.0 mi NW 23.0 mph 31.1 mph N/A   Mostly Cloudy
4:35 AM 19.4 °F 0.5 °F 14.0 °F 80% 29.88 in 10.0 mi NW 29.9 mph 39.1 mph N/A   Partly Cloudy
4:55 AM 19.4 °F 1.4 °F 12.2 °F 74% 29.92 in 10.0 mi WNW 26.5 mph 38.0 mph N/A   Mostly Cloudy
5:15 AM 17.6 °F -0.6 °F 12.2 °F 79% 29.95 in 10.0 mi NW 25.3 mph 38.0 mph N/A   Mostly Cloudy
5:35 AM 17.6 °F 0.1 °F 10.4 °F 73% 29.99 in 10.0 mi NW 23.0 mph 32.2 mph N/A   Mostly Cloudy
5:55 AM 17.6 °F 2.2 °F 10.4 °F 73% 30.01 in 10.0 mi NW 17.3 mph 24.2 mph N/A   Mostly Cloudy
6:15 AM 17.6 °F 0.9 °F 10.4 °F 73% 30.03 in 10.0 mi NNW 20.7 mph 29.9 mph N/A   Partly Cloudy
6:35 AM 17.6 °F 1.7 °F 10.4 °F 73% 30.05 in 10.0 mi NW 18.4 mph 28.8 mph N/A   Clear
6:45 AM 17.6 °F 0.5 °F 8.6 °F 68% 30.06 in 10.0 mi NNW 21.9 mph 27.6 mph N/A   Clear
6:55 AM 17.6 °F -1.0 °F 8.6 °F 68% 30.06 in 10.0 mi NW 26.5 mph 32.2 mph N/A   Clear
7:45 AM 15.8 °F -2.3 °F 8.6 °F 73% 30.11 in 10.0 mi NNW 23.0 mph 39.1 mph N/A   Clear
8:45 AM 17.6 °F 1.7 °F 8.6 °F 68% 30.18 in 10.0 mi North 18.4 mph 27.6 mph N/A   Clear
9:55 AM 19.4 °F 4.1 °F 8.6 °F 63% 30.25 in 10.0 mi NNW 18.4 mph 27.6 mph N/A   Clear
10:45 AM 21.2 °F 6.8 °F 8.6 °F 58% 30.27 in 10.0 mi North 17.3 mph 29.9 mph N/A   Clear
12:35 PM 24.8 °F 10.0 °F 6.8 °F 46% 30.29 in 10.0 mi NNW 21.9 mph 27.6 mph N/A   Clear
12:45 PM 24.8 °F 10.7 °F 6.8 °F 46% 30.29 in 10.0 mi North 19.6 mph 25.3 mph N/A   Clear
12:55 PM 24.8 °F 11.5 °F 6.8 °F 46% 30.29 in 10.0 mi NNW 17.3 mph 25.3 mph N/A   Clear
1:15 PM 24.8 °F 11.5 °F 6.8 °F 46% 30.30 in 10.0 mi NNW 17.3 mph 27.6 mph N/A   Clear
1:35 PM 24.8 °F 11.5 °F 6.8 °F 46% 30.31 in 10.0 mi North 17.3 mph 27.6 mph N/A   Clear
1:45 PM 24.8 °F 12.4 °F 6.8 °F 46% 30.32 in 10.0 mi NNW 15.0 mph 25.3 mph N/A   Clear
1:55 PM 24.8 °F 11.5 °F 6.8 °F 46% 30.32 in 10.0 mi NNW 17.3 mph 23.0 mph N/A   Clear
2:15 PM 26.6 °F 16.2 °F 8.6 °F 47% 30.34 in 10.0 mi NNW 11.5 mph 17.3 mph N/A   Clear
2:35 PM 26.6 °F 15.2 °F 6.8 °F 43% 30.34 in 10.0 mi NW 13.8 mph 19.6 mph N/A   Clear
2:55 PM 24.8 °F 13.4 °F 6.8 °F 46% 30.34 in 10.0 mi NNW 12.7 mph 19.6 mph N/A   Clear
3:15 PM 24.8 °F 11.9 °F 6.8 °F 46% 30.35 in 10.0 mi NW 16.1 mph 20.7 mph N/A   Clear
3:35 PM 24.8 °F 14.0 °F 6.8 °F 46% 30.36 in 10.0 mi NW 11.5 mph 18.4 mph N/A   Clear
3:55 PM 24.8 °F 12.4 °F 5.0 °F 43% 30.38 in 10.0 mi NNW 15.0 mph 19.6 mph N/A   Clear
4:15 PM 24.8 °F 14.0 °F 6.8 °F 46% 30.39 in 10.0 mi NW 11.5 mph - N/A   Clear
4:35 PM 23.0 °F 11.1 °F 6.8 °F 50% 30.39 in 10.0 mi NW 12.7 mph - N/A   Clear
4:55 PM 21.2 °F 14.9 °F 6.8 °F 54% 30.41 in 10.0 mi NNW 4.6 mph - N/A   Clear
5:15 PM 19.4 °F - 5.0 °F 54% 30.42 in 10.0 mi Calm Calm - N/A   Clear
5:35 PM 19.4 °F 12.8 °F 5.0 °F 54% 30.42 in 10.0 mi North 4.6 mph - N/A   Clear
5:55 PM 17.6 °F 6.4 °F 6.8 °F 63% 30.43 in 10.0 mi NNW 9.2 mph - N/A   Clear
6:15 PM 17.6 °F 7.3 °F 5.0 °F 58% 30.44 in 10.0 mi NW 8.1 mph - N/A   Clear
6:35 PM 17.6 °F 7.3 °F 5.0 °F 58% 30.44 in 10.0 mi NW 8.1 mph - N/A   Clear
6:55 PM 17.6 °F 12.3 °F 6.8 °F 63% 30.45 in 10.0 mi North 3.5 mph - N/A   Clear
7:15 PM 17.6 °F 9.3 °F 6.8 °F 63% 30.46 in 10.0 mi NNE 5.8 mph - N/A   Clear
7:35 PM 17.6 °F 12.3 °F 6.8 °F 63% 30.46 in 10.0 mi North 3.5 mph - N/A   Clear
7:55 PM 15.8 °F - 6.8 °F 68% 30.48 in 10.0 mi Calm Calm - N/A   Clear
8:15 PM 15.8 °F 10.2 °F 6.8 °F 68% 30.49 in 10.0 mi West 3.5 mph - N/A   Clear
8:35 PM 14.0 °F - 6.8 °F 73% 30.49 in 10.0 mi Calm Calm - N/A   Clear
8:55 PM 12.2 °F - 6.8 °F 79% 30.49 in 10.0 mi Calm Calm - N/A   Clear
9:15 PM 12.2 °F - 6.8 °F 79% 30.50 in 10.0 mi Calm Calm - N/A   Clear
9:35 PM 10.4 °F - 6.8 °F 85% 30.50 in 10.0 mi Calm Calm - N/A   Clear
9:55 PM 10.4 °F - 6.8 °F 85% 30.50 in 10.0 mi Calm Calm - N/A   Clear
10:15 PM 10.4 °F - 6.8 °F 85% 30.50 in 10.0 mi Calm Calm - N/A   Clear
10:35 PM 10.4 °F - 6.8 °F 85% 30.50 in 10.0 mi Calm Calm - N/A   Clear
10:55 PM 10.4 °F - 6.8 °F 85% 30.50 in 10.0 mi Calm Calm - N/A   Clear
11:15 PM 10.4 °F - 8.6 °F 92% 30.50 in 10.0 mi Calm Calm - N/A   Clear
11:35 PM 8.6 °F - 6.8 °F 92% 30.50 in 10.0 mi Calm Calm - N/A   Clear
11:55 PM 8.6 °F - 6.8 °F 92% 30.50 in 10.0 mi Calm Calm - N/A   Clear